Satellite: RS-38 Catalog number: 35869 Epoch time: 11314.71602121 Element set: 868 Inclination: 098.6849 deg RA of node: 007.8290 deg Eccentricity: 0.0004520 Arg of perigee: 337.9101 deg Mean anomaly: 022.1878 deg Mean motion: 14.22032134 rev/day Decay rate: 8.7e-07 rev/day^2 Epoch rev: 11142 Checksum: 284
Satellite: ARISSAT1 Catalog number: 37772 Epoch time: 11314.89899601 Element set: 303 Inclination: 051.6326 deg RA of node: 138.6818 deg Eccentricity: 0.0003114 Arg of perigee: 085.0349 deg Mean anomaly: 065.2295 deg Mean motion: 15.75099869 rev/day Decay rate: 1.80624e-03 rev/day^2 Epoch rev: 1544 Checksum: 318
Satellite: SRMSAT Catalog number: 37839 Epoch time: 11314.89054292 Element set: 26 Inclination: 019.9635 deg RA of node: 246.7055 deg Eccentricity: 0.0018985 Arg of perigee: 328.1249 deg Mean anomaly: 031.8008 deg Mean motion: 14.11985316 rev/day Decay rate: 6.19e-06 rev/day^2 Epoch rev: 421 Checksum: 300
Satellite: JUGNU Catalog number: 37841 Epoch time: 11314.85979429 Element set: 24 Inclination: 019.9719 deg RA of node: 247.4841 deg Eccentricity: 0.0012391 Arg of perigee: 298.8583 deg Mean anomaly: 061.0597 deg Mean motion: 14.10082857 rev/day Decay rate: 2.64e-06 rev/day^2 Epoch rev: 419 Checksum: 316
/EX